Location: DARK SKY Beskydy - Park tmavé oblohy, www.darkskybeskydy.cz
(49.4926°N, 18.5016°E)
Time: 15:18:07
(UTC+01:00)

Vanguard 1 - Pass Details

Date: 14 November 2025
Orbit: 650 x 3821 km, 34.2° (Epoch: 07 December)

Event Time Altitude Azimuth Distance (km) Brightness Sun altitude
Rises 22:38:38 0° 278° (W) 7,955 14.9 -57.3°
Reaches altitude 10° 22:45:31 10° 269° (W) 6,787 14.4 -57.7°
Enters shadow 22:54:37 23° 249° (WSW) 5,353 13.6 -58.1°
